• In Netherlands
  • List of Countries
  • For 7 days
  • Water Temperature
  • Satellite Maps
  • Weather Map
  • Weather Widgets
  • user-avatar
    Login

    Hourly Weather Hrazdan

    Today, 30 April, Sunday

    Time Temperature Precipitation Wind Pressure Humidity
    00:00 +6°C° 0.3 mm 1 mps 612 mmHg 94%
    01:00 +6°C° 0.2 mm 1 mps 612 mmHg 94%
    02:00 +6°C° 0.2 mm 1 mps 612 mmHg 94%
    03:00 +4°C° 0 mm 0 mps 611 mmHg 95%
    04:00 +4°C° 0 mm 0 mps 611 mmHg 93%
    05:00 +4°C° 0 mm 0 mps 611 mmHg 92%
    06:00 +4°C° 0 mm 0 mps 612 mmHg 91%
    07:00 +8°C° 0 mm 1 mps 613 mmHg 81%
    08:00 +10°C° 0 mm 1 mps 613 mmHg 72%
    09:00 +12°C° 0 mm 1 mps 614 mmHg 61%
    10:00 +13°C° 0.2 mm 1 mps 614 mmHg 58%
    11:00 +14°C° 0.2 mm 2 mps 614 mmHg 54%
    12:00 +15°C° 0.2 mm 2 mps 615 mmHg 51%
    13:00 +15°C° 0.6 mm 2 mps 614 mmHg 51%
    14:00 +15°C° 0.6 mm 2 mps 614 mmHg 52%
    15:00 +14°C° 0 mm 2 mps 614 mmHg 54%
    16:00 +14°C° 0.6 mm 1 mps 614 mmHg 59%
    17:00 +13°C° 0.6 mm 1 mps 613 mmHg 65%
    18:00 +12°C° 0.6 mm 1 mps 613 mmHg 70%
    19:00 +9°C° 0.2 mm 1 mps 612 mmHg 76%
    20:00 +7°C° 0.2 mm 1 mps 611 mmHg 82%
    21:00 +5°C° 0.2 mm 1 mps 611 mmHg 88%
    22:00 +5°C° 0.1 mm 1 mps 611 mmHg 87%
    23:00 +4°C° 0.1 mm 1 mps 611 mmHg 86%

    Tomorrow, 1 May, Monday

    Time Temperature Precipitation Wind Pressure Humidity
    00:00 +4°C° 0.1 mm 1 mps 611 mmHg 86%
    01:00 +3°C° 0 mm 1 mps 611 mmHg 85%
    02:00 +3°C° 0 mm 1 mps 610 mmHg 84%
    03:00 +3°C° 0 mm 1 mps 610 mmHg 83%
    04:00 +4°C° 0 mm 1 mps 611 mmHg 80%
    05:00 +4°C° 0 mm 1 mps 611 mmHg 76%
    06:00 +5°C° 0 mm 1 mps 612 mmHg 73%
    07:00 +8°C° 0 mm 1 mps 613 mmHg 64%
    08:00 +11°C° 0 mm 1 mps 614 mmHg 54%
    09:00 +14°C° 0 mm 1 mps 615 mmHg 45%
    10:00 +15°C° 0 mm 1 mps 615 mmHg 41%
    11:00 +18°C° 0 mm 1 mps 616 mmHg 36%
    12:00 +19°C° 0 mm 1 mps 616 mmHg 32%
    13:00 +19°C° 0.1 mm 1 mps 616 mmHg 32%
    14:00 +19°C° 0.1 mm 1 mps 615 mmHg 31%
    15:00 +19°C° 0.1 mm 1 mps 615 mmHg 31%
    16:00 +18°C° 0 mm 1 mps 615 mmHg 40%
    17:00 +15°C° 0 mm 1 mps 614 mmHg 48%
    18:00 +13°C° 0 mm 1 mps 613 mmHg 57%
    19:00 +11°C° 0 mm 1 mps 613 mmHg 63%
    20:00 +10°C° 0 mm 1 mps 612 mmHg 68%
    21:00 +8°C° 0 mm 1 mps 612 mmHg 74%
    22:00 +8°C° 0 mm 1 mps 612 mmHg 77%
    23:00 +7°C° 0 mm 1 mps 612 mmHg 80%

    Day after tomorrow, 2 May, Tuesday

    Time Temperature Precipitation Wind Pressure Humidity
    00:00 +7°C° 0 mm 1 mps 612 mmHg 84%
    01:00 +7°C° 0.1 mm 1 mps 612 mmHg 84%
    02:00 +7°C° 0.1 mm 1 mps 612 mmHg 85%
    03:00 +6°C° 0.1 mm 1 mps 612 mmHg 86%
    04:00 +7°C° 0.3 mm 1 mps 612 mmHg 85%
    05:00 +7°C° 0.3 mm 1 mps 613 mmHg 84%
    06:00 +8°C° 0.3 mm 1 mps 613 mmHg 83%
    07:00 +10°C° 0.1 mm 1 mps 613 mmHg 74%
    08:00 +12°C° 0.1 mm 1 mps 614 mmHg 65%
    09:00 +14°C° 0.1 mm 1 mps 615 mmHg 56%
    10:00 +15°C° 0.1 mm 1 mps 615 mmHg 52%
    11:00 +16°C° 0.1 mm 1 mps 615 mmHg 48%
    12:00 +18°C° 0.1 mm 2 mps 615 mmHg 44%
    13:00 +17°C° 0.4 mm 2 mps 615 mmHg 47%
    14:00 +17°C° 0.4 mm 2 mps 614 mmHg 50%
    15:00 +16°C° 0.4 mm 2 mps 614 mmHg 54%
    16:00 +15°C° 0.4 mm 2 mps 613 mmHg 61%
    17:00 +14°C° 0.4 mm 1 mps 612 mmHg 69%
    18:00 +12°C° 0.4 mm 1 mps 612 mmHg 77%
    19:00 +11°C° 0.9 mm 1 mps 612 mmHg 81%
    20:00 +11°C° 0.9 mm 1 mps 612 mmHg 86%
    21:00 +10°C° 0.9 mm 1 mps 612 mmHg 90%
    22:00 +9°C° 0.6 mm 1 mps 611 mmHg 91%
    23:00 +9°C° 0.6 mm 1 mps 611 mmHg 91%

    3 May, Wednesday

    Time Temperature Precipitation Wind Pressure Humidity
    00:00 +9°C° 0.6 mm 1 mps 611 mmHg 92%
    01:00 +9°C° 0.2 mm 1 mps 611 mmHg 92%
    02:00 +8°C° 0.2 mm 1 mps 610 mmHg 93%
    03:00 +8°C° 0.2 mm 1 mps 610 mmHg 94%
    04:00 +8°C° 0.2 mm 1 mps 610 mmHg 93%
    05:00 +8°C° 0.2 mm 1 mps 610 mmHg 92%
    06:00 +8°C° 0.2 mm 1 mps 610 mmHg 92%
    07:00 +10°C° 0.3 mm 1 mps 611 mmHg 86%
    08:00 +11°C° 0.3 mm 1 mps 611 mmHg 80%
    09:00 +13°C° 0.3 mm 1 mps 611 mmHg 74%
    10:00 +14°C° 0.6 mm 1 mps 612 mmHg 69%
    11:00 +15°C° 0.6 mm 2 mps 612 mmHg 64%
    12:00 +16°C° 0.6 mm 2 mps 612 mmHg 58%
    13:00 +15°C° 1 mm 2 mps 611 mmHg 59%
    14:00 +15°C° 1 mm 2 mps 611 mmHg 60%
    15:00 +15°C° 1 mm 2 mps 611 mmHg 61%
    16:00 +14°C° 0.9 mm 2 mps 611 mmHg 67%
    17:00 +13°C° 0.9 mm 1 mps 610 mmHg 72%
    18:00 +12°C° 0.9 mm 1 mps 610 mmHg 77%
    19:00 +11°C° 0.3 mm 1 mps 610 mmHg 80%
    20:00 +9°C° 0.3 mm 1 mps 610 mmHg 83%
    21:00 +8°C° 0.3 mm 1 mps 610 mmHg 86%
    22:00 +7°C° 0 mm 1 mps 609 mmHg 87%
    23:00 +7°C° 0 mm 1 mps 609 mmHg 88%

    4 May, Thursday

    Time Temperature Precipitation Wind Pressure Humidity
    00:00 +6°C° 0 mm 1 mps 609 mmHg 88%
    01:00 +6°C° 0 mm 1 mps 609 mmHg 88%
    02:00 +5°C° 0 mm 1 mps 609 mmHg 88%
    03:00 +5°C° 0 mm 1 mps 609 mmHg 88%
    04:00 +5°C° 0 mm 1 mps 609 mmHg 86%
    05:00 +6°C° 0 mm 1 mps 609 mmHg 84%
    06:00 +6°C° 0 mm 1 mps 609 mmHg 82%
    07:00 +9°C° 0 mm 1 mps 610 mmHg 74%
    08:00 +11°C° 0 mm 1 mps 611 mmHg 65%
    09:00 +13°C° 0 mm 1 mps 612 mmHg 57%
    10:00 +14°C° 0.1 mm 1 mps 612 mmHg 53%
    11:00 +15°C° 0.1 mm 1 mps 612 mmHg 49%
    12:00 +18°C° 0.1 mm 1 mps 613 mmHg 45%
    13:00 +16°C° 0.3 mm 1 mps 612 mmHg 47%
    14:00 +16°C° 0.3 mm 1 mps 612 mmHg 49%
    15:00 +16°C° 0.3 mm 1 mps 611 mmHg 51%
    16:00 +15°C° 0.5 mm 1 mps 611 mmHg 57%
    17:00 +14°C° 0.5 mm 1 mps 611 mmHg 64%
    18:00 +12°C° 0.5 mm 0 mps 611 mmHg 71%
    19:00 +11°C° 0.3 mm 1 mps 610 mmHg 76%
    20:00 +9°C° 0.3 mm 1 mps 610 mmHg 82%
    21:00 +7°C° 0.3 mm 1 mps 610 mmHg 87%
    22:00 +7°C° 0.2 mm 1 mps 610 mmHg 88%
    23:00 +7°C° 0.2 mm 1 mps 610 mmHg 88%

    5 May, Friday

    Time Temperature Precipitation Wind Pressure Humidity
    00:00 +6°C° 0.2 mm 1 mps 610 mmHg 89%
    01:00 +6°C° 0.1 mm 1 mps 610 mmHg 89%
    02:00 +4°C° 0.1 mm 0 mps 609 mmHg 90%
    03:00 +4°C° 0.1 mm 0 mps 609 mmHg 90%
    04:00 +5°C° 0.1 mm 0 mps 610 mmHg 88%
    05:00 +5°C° 0.1 mm 0 mps 610 mmHg 87%
    06:00 +6°C° 0.1 mm 0 mps 611 mmHg 85%
    07:00 +9°C° 0.1 mm 1 mps 611 mmHg 77%
    08:00 +11°C° 0.1 mm 1 mps 612 mmHg 69%
    09:00 +13°C° 0.1 mm 1 mps 613 mmHg 60%
    10:00 +14°C° 0.4 mm 1 mps 613 mmHg 59%
    11:00 +15°C° 0.4 mm 1 mps 613 mmHg 58%
    12:00 +16°C° 0.4 mm 2 mps 613 mmHg 57%
    13:00 +16°C° 1 mm 2 mps 613 mmHg 59%
    14:00 +16°C° 1 mm 2 mps 612 mmHg 60%
    15:00 +16°C° 1 mm 1 mps 612 mmHg 62%
    16:00 +15°C° 1.2 mm 1 mps 611 mmHg 67%
    17:00 +14°C° 1.2 mm 1 mps 611 mmHg 72%
    18:00 +13°C° 1.2 mm 1 mps 611 mmHg 77%
    19:00 +11°C° 1.2 mm 1 mps 611 mmHg 81%
    20:00 +10°C° 1.2 mm 1 mps 611 mmHg 84%
    21:00 +9°C° 1.2 mm 1 mps 611 mmHg 87%
    22:00 +8°C° 0.4 mm 1 mps 611 mmHg 89%
    23:00 +8°C° 0.4 mm 1 mps 610 mmHg 90%
    Show more